Regional Weather Roundup
Issued by NWS

Home | Current Version | Previous Version | Graphics & Text | Print | Product List | Glossary On
Versions: 1 2 3 4 5 6 7 8 9 10 11 12 13 14 15 16 17 18 19 20 21 22 23 24 25 26 27 28 29 30 31 32 33 34 35 36 37 38 39 40 41 42 43 44 45 46 47 48 49 50
000
ASUS43 KBIS 230720
RWRND

NORTH DAKOTA REGIONAL WEATHER ROUNDUP
NATIONAL WEATHER SERVICE BISMARCK ND
200 AM CDT WED JUL 23 2014

NOTE: "FAIR" INDICATES FEW OR NO CLOUDS BELOW 12,000 FEET WITH NO
SIGNIFICANT WEATHER AND/OR OBSTRUCTIONS TO VISIBILITY.


NDZ001>003-009>011-017-230800-
NORTHWEST NORTH DAKOTA

CITY           SKY/WX    TMP DP  RH WIND       PRES   REMARKS
WILLISTON      MOCLDY    69  63  81 E5        30.24S
MINOT          CLOUDY    67  60  78 CALM      30.25S
MINOT AFB      CLOUDY    67  62  81 E6        30.26R
$$

NDZ018>021-031>035-040>046-230800-
SOUTHWEST NORTH DAKOTA

CITY           SKY/WX    TMP DP  RH WIND       PRES   REMARKS
BISMARCK       PTCLDY    66  62  87 E7        30.25F
DICKINSON      CLOUDY    63  59  87 SE7       30.24F
GARRISON         N/A     69  64  84 E3        30.25F
HETTINGER ARPT MOCLDY    62  58  86 E3        30.26F
$$

NDZ004>008-012>016-024-026-027-054-230800-
NORTHEAST NORTH DAKOTA

CITY           SKY/WX    TMP DP  RH WIND       PRES   REMARKS
GRAND FORKS    CLEAR     59  57  93 NW5       30.26R
GRND FRKS AFB  MOCLDY    62  62  99 VRB5      30.27S
DEVILS LAKE    CLOUDY    64  57  77 E5        30.27R
$$

NDZ022-023-025-028>030-036>039-047>053-230800-
SOUTHEAST NORTH DAKOTA

CITY           SKY/WX    TMP DP  RH WIND       PRES   REMARKS
FARGO          PTCLDY    60  57  89 NW3       30.26R
JAMESTOWN      PTCLDY    63  59  87 SE5       30.27F
$$




USA.gov is the U.S. government's official web portal to all federal, state and local government web resources and services.